Regional Weather Roundup
Issued by NWS Burlington, VT

Home | Current Version | Previous Version | Text Only | Print | Product List | Glossary On
Versions: 1 2 3 4 5 6 7 8 9 10 11 12 13 14 15 16 17 18 19 20 21 22 23 24 25 26 27 28 29 30 31 32 33 34 35 36 37 38 39 40 41 42 43 44 45 46 47 48 49 50
000
ASUS41 KBTV 300030
RWRBTV
VERMONT REGIONAL WEATHER ROUNDUP
NATIONAL WEATHER SERVICE BURLINGTON VT
800 PM EDT FRI MAY 29 2015

NOTE: "FAIR" INDICATES FEW OR NO CLOUDS BELOW 12,000 FEET WITH NO
SIGNIFICANT WEATHER AND/OR OBSTRUCTIONS TO VISIBILITY.

* THESE REPORTS ARE NOT UNDER NWS QUALITY CONTROL AND/OR DO NOT
  REPORT WEATHER SUCH AS PRECIPITATION AND FOG.

VTZ001>019-300100-
_____VERMONT_____


CITY           SKY/WX    TMP DP  RH WIND       PRES   REMARKS
BURLINGTON     MOCLDY    76  52  43 S8        30.13F
6HR MIN TEMP:  76; 6HR MAX TEMP:  81;

MONTPELIER     MOCLDY    70  57  63 S3        30.22F
6HR MIN TEMP:  70; 6HR MAX TEMP:  79;

MORRISVILLE    MOCLDY    72  58  61 CALM      30.17F
6HR MIN TEMP:  72; 6HR MAX TEMP:  82;

ST. JOHNSBURY*   N/A     75  53  46 MISG      30.15F
6HR MIN TEMP:  75; 6HR MAX TEMP:  83;

LYNDONVILLE*     N/A     71  50  46 CALM      30.20F
6HR MIN TEMP:  72; 6HR MAX TEMP:  79;

MIDDLEBURY*      N/A     68  60  75 CALM      30.17S
6HR MIN TEMP:  70; 6HR MAX TEMP:  80;

RUTLAND*       CLOUDY    70  61  73 SE6       30.19S
6HR MIN TEMP:  72; 6HR MAX TEMP:  79;

SPRINGFIELD    CLOUDY    73  59  61 CALM      30.19F
6HR MIN TEMP:  73; 6HR MAX TEMP:  83;

HIGHGATE*        N/A     69  60  70 CALM      30.13F
6HR MIN TEMP:  70; 6HR MAX TEMP:  79;

NEWPORT*         N/A     67  58  72 CALM      30.17F
6HR MIN TEMP:  67; 6HR MAX TEMP:  77;

BENNINGTON     MOCLDY    72  63  73 CALM      30.20S
6HR MIN TEMP:  72; 6HR MAX TEMP:  82;

SUTTON*          N/A     66 N/A N/A MISG        N/A
MT. MANSFIELD*   N/A     59 N/A N/A CALM        N/A

_____LAKE CHAMPLAIN_____


CITY           SKY/WX    TMP DP  RH WIND       PRES   REMARKS
BURTON ISLAND*   N/A     70  57  64 SW1         N/A
COLCHESTER RF*   N/A     68  54  60 S18         N/A
DIAMOND ISL*     N/A     73  54  49 SW8         N/A

$$

NYZ007-026>031-035-052-083-300100-
_____NORTHERN NEW YORK_____


CITY           SKY/WX    TMP DP  RH WIND       PRES   REMARKS
PLATTSBURGH    MOCLDY    68  57  68 CALM      30.11F
6HR MIN TEMP:  68; 6HR MAX TEMP:  77;

SARANAC LAKE   MOCLDY    73  50  44 SW8       30.16F
6HR MIN TEMP:  73; 6HR MAX TEMP:  78;

MASSENA        PTCLDY    75  58  55 CALM      30.11F
6HR MIN TEMP:  75; 6HR MAX TEMP:  80;

OGDENSBURG*    CLEAR     72  61  68 CALM      30.10F
POTSDAM*       CLEAR     73  55  53 CALM      30.11S
WATERTOWN      PTCLDY    76  53  44 SE3       30.10F
6HR MIN TEMP:  76; 6HR MAX TEMP:  82;

FT DRUM        PTCLDY    76  51  40 S6        30.12F
6HR MIN TEMP:  76; 6HR MAX TEMP:  81;

ALBANY         CLOUDY    79  55  43 S9        30.17F
6HR MIN TEMP:  79; 6HR MAX TEMP:  83;

GLENS FALLS    MOCLDY    74  58  57 CALM      30.16F
6HR MIN TEMP:  73; 6HR MAX TEMP:  81;


$$
NHZ002-005-011-300100-
_____NEW HAMPSHIRE_____


CITY           SKY/WX    TMP DP  RH WIND       PRES   REMARKS
LEBANON        CLOUDY    71  61  70 S3        30.17F
6HR MIN TEMP:  71; 6HR MAX TEMP:  83;

KEENE          CLOUDY    68  61  77 CALM      30.21S
6HR MIN TEMP:  70; 6HR MAX TEMP:  81;

MT WASHINGTON  FOG       50  50 100 SW9         N/A  VSB 1/4
6HR MIN TEMP:  50; 6HR MAX TEMP:  59;

PLYMOUTH         N/A     72  64  77 E5        30.19F
6HR MIN TEMP:  74; 6HR MAX TEMP:  81;

WHITEFIELD     CLOUDY    72  57  59 CALM      30.19F
6HR MIN TEMP:  72; 6HR MAX TEMP:  81;


$$

_____REGIONAL QUEBEC LOCATIONS_____


CITY           SKY/WX    TMP DP  RH WIND       PRES   REMARKS
MONTREAL       CLOUDY    73  55  53 SE7       30.10F
QUEBEC CITY    CLOUDY    68  55  64 SW2       30.12F
SHERBROOKE     CLEAR     68  59  73 CALM      30.16F

_____REGIONAL ONTARIO LOCATIONS_____


CITY           SKY/WX    TMP DP  RH WIND       PRES   REMARKS
OTTAWA         MOCLDY    72  55  56 S5        30.10F

______KEY______
VSB  - VISIBILITY IN MILES
WCI  - WIND CHILL INDEX
HX   - HEAT INDEX
$$
NNNN



USA.gov is the U.S. government's official web portal to all federal, state and local government web resources and services.